Location: Passau
(48.5721°N, 13.4363°E)
Time: 12:41:43
(UTC+02:00)

ISS - Pass Details

Date: 27 September 2020
Orbit: 418 x 420 km, 51.6° (Epoch: 21 October)

Event Time Altitude Azimuth Distance (km) Brightness Sun altitude
Rises 19:26:42 0° 271° (W) 2,365 2.8 -6.4°
Reaches altitude 10° 19:28:50 10° 276° (W) 1,502 0.9 -6.8°
Maximum altitude 19:32:08 50° 354° (N) 545 -3.1 -7.3°
Drops below altitude 10° 19:35:26 10° 71° (ENE) 1,505 -1.5 -7.9°
Enters shadow 19:35:39 - 72° (ENE) 1,591 -1.4 -7.9°
